BEEAGLESAT (42736 NORAD) Tracking and Keplerian Element Data

This shows tracking and keplerian element data for the satellite.

Feedback or suggestion? Click here.




ElementValue
Catalog42736
NameBEEAGLESAT
Epoch Orbit8430
Epoch Day319.91783338
Epoch Year2018
RAAN301.1554
Inclination51.6323
Eccentricity0.0006787
Argument of Perigee78.625
Mean Anonmoly281.5512
Mean Motion15.77606117
Decay Rate0.00036437
L11 42736U 98067MR 18319.91783338 .00036437 00000-0 21647-3 0 9992
L22 42736 51.6323 301.1554 0006787 78.6250 281.5512 15.77606117 84309

Live tracking and technical data element details for BEEAGLESAT (NORAD 42736). BEEAGLESAT can be tracked NOW for your location showing map with azimuth and elevation plus other details from your city location.

Track the satellite on the map from your city or location and see movement details for azimuth, elevation, latitude, longitude, range, height, and movement on the map or in text.







IsCatalogInMostPopularTable: catalog: 42736, numindb: 153
Update: records affected: 1



GetName: 42736 BEEAGLESAT

Hit Count: updated at: Fri, 16 Nov 2018 10:09:09 GMT